الكل
Moree Hospital Airport YXEE حالة الطقس
There is no TAF data available at YXEE. Showing TAF data for YMOR (2 mi جنوب).
توقع منطقة محطة المطار MRZ (لا توجد بيانات لـYXEE)
| Here is the undecoded forecast: 2026/05/08 18:13 YMOR 081813Z 0820/0908 17006KT CAVOK PROB30 0820/0821 0500 FG RMK T 06 14 20 22 Q 1023 1024 1023 1022 |
There is no METAR data available at YXEE. Showing METAR data for YMOR (2 mi جنوب).
محفوظات أحدث تقرير روتيني عن حالة الطقس من أجل الطيران (الميتار) MRZ ( لا توجد بيانات لـYXEE)
| Date | Time (AEST) | Flight Rules | Wind Dir. | Speed | Type | Height AGL (ft) | Visibility | Temp (°C) | Temp (°F) | Dew Point (°C) | Dew Point (°F) | Rel. Humid. | Pressure | Density Altitude | Remarks |
|---|---|---|---|---|---|---|---|---|---|---|---|---|---|---|---|
| 09-ماي | 07:00 | VFR | 230° | 4 kt | 10000 meters | 5° | 41° | 4° | 39° | 93% | 1023 mb | -788 ft | |||
| 09-ماي | 06:00 | VFR | 180° | 3 kt | 10000 meters | 4° | 39° | 3° | 37° | 93% | 1023 mb | -908 ft | |||
| 09-ماي | 05:00 | VFR | 260° | 5 kt | 10000 meters | 5° | 41° | 4° | 39° | 93% | 1022 mb | -759 ft | |||
| 09-ماي | 04:00 | VFR | 250° | 6 kt | 10000 meters | 6° | 42° | 4° | 39° | 87% | 1022 mb | -639 ft | |||
| 09-ماي | 03:00 | VFR | 210° | 4 kt | 10000 meters | 6° | 42° | 4° | 39° | 87% | 1023 mb | -668 ft | |||
| 09-ماي | 02:00 | VFR | 150° | 6 kt | 10000 meters | 7° | 44° | 4° | 39° | 81% | 1022 mb | -519 ft | |||
| 09-ماي | 01:00 | VFR | 220° | 6 kt | 10000 meters | 7° | 44° | 4° | 39° | 81% | 1023 mb | -548 ft | |||
| 09-ماي | 00:00 | VFR | 220° | 9 kt | 10000 meters | 8° | 46° | 4° | 39° | 76% | 1023 mb | -428 ft | |||
| 08-ماي | 23:00 | VFR | 220° | 8 kt | 10000 meters | 9° | 48° | 4° | 39° | 71% | 1023 mb | -308 ft | |||
| 08-ماي | 22:00 | VFR | 230° | 7 kt | 10000 meters | 9° | 48° | 3° | 37° | 66% | 1023 mb | -308 ft | |||
| 08-ماي | 21:00 | VFR | 220° | 9 kt | 10000 meters | 10° | 50° | 3° | 37° | 62% | 1023 mb | -188 ft | |||
| 08-ماي | 20:00 | VFR | 240° | 7 kt | 10000 meters | 11° | 51° | 3° | 37° | 58% | 1023 mb | -68 ft | |||
| 08-ماي | 19:00 | VFR | 240° | 7 kt | 10000 meters | 13° | 55° | 4° | 39° | 54% | 1022 mb | 201 ft | |||
| 08-ماي | 18:00 | VFR | 220° | 8 kt | 10000 meters | 14° | 57° | 3° | 37° | 47% | 1022 mb | 321 ft | |||
| 08-ماي | 17:00 | VFR | 220° | 15 kt | 10000 meters | 17° | 62° | 4° | 39° | 42% | 1021 mb | 711 ft | |||
| 08-ماي | 16:00 | VFR | 220° | 16 kt | 10000 meters | 18° | 64° | 4° | 39° | 39% | 1021 mb | 831 ft | |||
| 08-ماي | 15:00 | VFR | 210° | 18 kt | 10000 meters | 18° | 64° | 3° | 37° | 37% | 1021 mb | 831 ft | |||
| 08-ماي | 14:00 | VFR | 210° | 15 kt | 10000 meters | 18° | 64° | 2° | 35° | 34% | 1021 mb | 831 ft | |||
| 08-ماي | 13:00 | VFR | 220° | 18 kt | 10000 meters | 17° | 62° | 3° | 37° | 39% | 1022 mb | 681 ft | |||
| 08-ماي | 12:00 | VFR | 210° | 19 kt | 10000 meters | 17° | 62° | 3° | 37° | 39% | 1023 mb | 652 ft | |||
| 08-ماي | 11:00 | VFR | 200° | 17 kt | 10000 meters | 15° | 59° | 3° | 37° | 44% | 1023 mb | 412 ft | |||
| 08-ماي | 10:00 | VFR | 200° | 19 kt | 10000 meters | 13° | 55° | 3° | 37° | 51% | 1024 mb | 142 ft | |||
| 08-ماي | 09:00 | VFR | 210° | 15 kt | 10000 meters | 11° | 51° | 2° | 35° | 54% | 1025 mb | -127 ft | |||
| 08-ماي | 08:00 | VFR | 230° | 11 kt | 10000 meters | 7° | 44° | 0° | 32° | 61% | 1025 mb | -607 ft |
تسجيل الدخول
| مُتصفحك غير مُدعَّم. قم بترقية متصفحك |
